Regional Weather Roundup
Issued by NWS

Home | Current Version | Previous Version | Graphics & Text | Print | Product List | Glossary On
Versions: 1 2 3 4 5 6 7 8 9 10 11 12 13 14 15 16 17 18 19 20 21 22 23 24 25 26 27 28 29 30 31 32 33 34 35 36 37 38 39 40 41 42 43 44 45 46 47 48 49 50
407
ASUS43 KMKX 250900
RWRWI

WISCONSIN REGIONAL WEATHER ROUNDUP
NATIONAL WEATHER SERVICE MILWAUKEE/SULLIVAN WI
300 AM CST SAT NOV 25 2017

NOTE: "FAIR" INDICATES FEW OR NO CLOUDS BELOW 12,000 FEET WITH NO
SIGNIFICANT WEATHER AND/OR OBSTRUCTIONS TO VISIBILITY.

WIZ001-002-006>008-014>016-023>028-251000-
NORTHWEST WISCONSIN

CITY           SKY/WX    TMP DP  RH WIND       PRES   REMARKS
SUPERIOR ARPT  CLOUDY    35  23  63 NW9       29.76R WCI  27
ASHLAND        PTCLDY    34  20  56 NW18G26   29.71R WCI  23
HAYWARD        CLOUDY    37  27  67 W9G18     29.71R WCI  30
SIREN          MOCLDY    34  29  81 W5        29.77R WCI  30
CUMBERLAND     PTCLDY    34  28  80 NW12G17   29.74R WCI  25
RICE LAKE      MOCLDY    36  31  81 W3        29.76R
CHETEK         PTCLDY    36  31  82 NW8       29.75R WCI  29
LADYSMITH      PTCLDY    35  30  82 W12       29.72R WCI  27
EAU CLAIRE     NOT AVBL
MENOMONIE      PTCLDY    37  32  83 W12       29.78R WCI  29
NEW RICHMOND   PTCLDY    36  30  79 W8        29.79R WCI  30
OSCEOLA        PTCLDY    37  31  80 W8        29.82R WCI  31
$$

WIZ003>005-009-010-017-018-251000-
NORTH CENTRAL WISCONSIN

CITY           SKY/WX    TMP DP  RH WIND       PRES   REMARKS
MANITOWISH WTR CLOUDY    35  34  94 W8G16     29.60R WCI  29
ARBOR VITAE    CLOUDY    37  32  85 NW8       29.60R WCI  30
WOODRUFF       CLOUDY    37  32  85 NW8       29.60R WCI  30
RHINELANDER    CLOUDY    37  32  82 W13       29.61S WCI  29
EAGLE RIVER    CLOUDY    36  30  80 W9        29.58S WCI  29
LAND O LAKES   CLOUDY    35  32  88 W6        29.59S WCI  30
PHILLIPS       MOCLDY    34  30  85 W7        29.65R WCI  28
TOMAHAWK       MOCLDY    34  29  82 W9        29.64R WCI  27
MEDFORD        CLEAR     34  30  86 W14       29.67R WCI  24
MERRILL        CLEAR     36  31  83 W9        29.66R WCI  29
$$

WIZ029-030-035-036-043>047-251000-
CENTRAL WISCONSIN

CITY           SKY/WX    TMP DP  RH WIND       PRES   REMARKS
WAUSAU         CLEAR     35  30  82 W12       29.66R WCI  27
MOSINEE        CLEAR     36  32  87 W9G17     29.68R WCI  29
MARSHFIELD     CLEAR     34  31  88 W12       29.70R WCI  25
STEVENS POINT  CLEAR     36  33  90 W8        29.69R WCI  29
WAUPACA        PTCLDY    43  35  72 W8        29.68R
WAUTOMA        PTCLDY    40  32  73 W14       29.72R WCI  32
WISC RAPIDS    CLEAR     37  33  85 W10       29.72R WCI  30
CAMP DOUGLAS   MOCLDY    37  34  86 W9        29.75R WCI  31
$$

WIZ011>013-019>022-031-037>040-048>050-251000-
NORTHEAST WISCONSIN

CITY           SKY/WX    TMP DP  RH WIND       PRES   REMARKS
ANTIGO         CLOUDY    36  31  81 W14G20    29.62S WCI  27
SHAWANO        MOCLDY    42  32  66 W3        29.64S
OCONTO         CLOUDY    38  32  78 W3        29.62R
STURGEON BAY   MOCLDY    40  32  73 W7        29.62R
GREEN BAY      CLOUDY    42  34  73 W9        29.64R
MANITOWOC      PTCLDY    42  35  76 W9        29.65R
APPLETON       PTCLDY    41  28  60 NW15G25   29.65R
CLINTONVILLE   CLOUDY    43  30  61 W7        29.65R
OSHKOSH        CLOUDY    41  34  76 W7        29.67R
$$

WIZ032>034-041-042-053>061-251000-
SOUTHWEST WISCONSIN

CITY           SKY/WX    TMP DP  RH WIND       PRES   REMARKS
LA CROSSE      PTCLDY    41  33  73 W10       29.81R
SPARTA         CLEAR     38  33  82 W5        29.77R WCI  35
VIROQUA        PTCLDY    38  35  90 W9        29.78R WCI  31
BOSCOBEL       CLEAR     41  33  73 SW7       29.82R
PRAIRIE DU CHI CLOUDY    39  32  74 W7        29.83R WCI  34
PLATTEVILLE    CLEAR     38  35  88 W10       29.81R WCI  31
$$

WIZ056-057-062-063-064-067-068-251000-
SOUTH CENTRAL WISCONSIN

CITY           SKY/WX    TMP DP  RH WIND       PRES   REMARKS
REEDSBURG      CLEAR     40  32  74 W8        29.75R WCI  34
BARABOO/DELLS  CLEAR     39  32  75 NW13      29.75R WCI  32
LONE ROCK      NOT AVBL
MINERAL POINT  CLEAR     39  36  87 W8        29.78R WCI  34
MADISON        CLEAR     42  34  73 NW8       29.74R
MIDDLETON      CLEAR     43  34  71 NW10      29.75R
WATERTOWN      PTCLDY    41  38  90 W10       29.71R
MONROE         CLEAR     41  36  81 W15       29.76R
JANESVILLE     CLEAR     43  36  75 NW10      29.74R
$$

WIZ051-052-058>065-066-070>072-251000-
SOUTHEAST WISCONSIN

CITY           SKY/WX    TMP DP  RH WIND       PRES   REMARKS
MILWAUKEE      PTCLDY    46  35  65 NW9       29.70R
WAUKESHA       PTCLDY    41  34  75 W14       29.71R
MILWAUKEE/TIMM CLEAR     43  32  65 NW12      29.69R
RACINE         CLEAR     46  36  68 NW10      29.72R
BURLINGTON     MOCLDY    46  42  83 NW6       29.72R
KENOSHA        CLEAR     45  35  68 NW12G21   29.71R
FOND DU LAC    CLOUDY    42  32  67 W8        29.69R
SHEBOYGAN      PTCLDY    42  36  79 NW12      29.66R
WEST BEND      PTCLDY    41  34  75 W8        29.68R
JUNEAU         MOCLDY    40  36  83 W6        29.72R
$$

LSZ147-162-251000-
LAKE SUPERIOR

STATION/POSITION TIME  TEMP    WIND        PRES    WAVE
                       AIR SEA DIR/SP/G            HT/PER
                 (UTC) (F)     (DEG/KT/KT) (MB)    (FT/S)
DEVILS ISLAND    0800   36     310/ 27/ 31 1004.4R
SAXON HARBOR     0840   38     300/ 22/ 29 1004.7R
$$

LMZ867-665-643>646-251000-
LAKE MICHIGAN

STATION/POSITION TIME  TEMP    WIND        PRES    WAVE
                       AIR SEA DIR/SP/G            HT/PER
                 (UTC) (F)     (DEG/KT/KT) (MB)    (FT/S)
N MID LAKE BUOY  0750   44 47  290/ 21/ 25 1001.4R   5/ 8
NORTHPORT PIER   0840   42     280/  4/  7 1002.0R
KEWAUNEE LAKESHO 0830   40     300/  4/  6 1002.8R
SHEBOYGAN LAKESH 0800   46     310/ 10/ 12 1003.9R
PORT WASHINGTON  0830   46     290/  6/ 11 1005.8R
MILWAUKEE LAKESH 0830   46     310/ 12/ 14   N/A
S MID LAKE BUOY  0750   48 47  340/ 19/ 21 1004.0R   3/ 6
KENOSHA   LAKESH 0800   49     290/ 16/ 21 1005.4
$$

TC  - TEMPERATURE IN CELSIUS
VSB - VISIBILITY IN STATUTE MILES
WCI - WIND CHILL INDEX
HX  - HEAT INDEX





USA.gov is the U.S. government's official web portal to all federal, state and local government web resources and services.